NOAA NWS Hourly Roundups by Site

Regional Weather Roundup for Des Moines, IA

To Select Another Site Choose from List

Select Site:  

000
ASUS43 KDMX 190906
RWRIA

WEATHER ROUNDUP FOR IOWA
NATIONAL WEATHER SERVICE DES MOINES IA
400 AM CDT THU APR 19 2018

NOTE: "FAIR" INDICATES FEW OR NO CLOUDS BELOW 12,000 FEET WITH NO
SIGNIFICANT WEATHER AND/OR OBSTRUCTIONS TO VISIBILITY.

* - THESE STATIONS ARE NOT NWS STATIONS...THUS NOT UNDER NWS
QUALITY CONTROL.  THEY ALSO DO NOT REPORT WEATHER SUCH
AS PRECIPITATION OR FOG.

IAZ001>003-012>014-020>022-031>034-043>046-191000-
   NORTHWEST IOWA

CITY           SKY/WX    TMP DP  RH WIND       PRES   REMARKS
CARROLL *      CLEAR     34  30  86 NW14      30.28R WCI  24
CHEROKEE *     CLEAR     28  28  98 N5        30.31R WCI  23
DENISON *      CLEAR     30  28  93 CALM      30.32R
LE MARS *      CLEAR     28  27  93 N3        30.32R
ORANGE CITY *  CLEAR     34  27  75 N8        30.31R WCI  27
SHELDON *      CLEAR     25  21  86 N8        30.30R WCI  16
SIOUX CITY     CLEAR     31  29  92 NW8       30.33R WCI  23
SPENCER        CLOUDY    26  19  74 N10       30.31R WCI  16
STORM LAKE *   CLEAR     28  27  93 N13       30.28R WCI  18
$$

IAZ055>058-069>071-079>083-090>094-191000-
   SOUTHWEST IOWA

CITY           SKY/WX    TMP DP  RH WIND       PRES   REMARKS
ATLANTIC *     CLEAR     30  30 100 N9        30.29R WCI  22
AUDUBON *      CLEAR     30  27  86 NW6       30.29R WCI  24
CLARINDA *     CLEAR     30  28  93 N6        30.33R WCI  24
COUNCIL BLFS * CLEAR     30  30 100 N7        30.30R WCI  23
CRESTON *      CLEAR     28  27  93 N9        30.28R WCI  20
HARLAN  *      CLEAR     30  30 100 N8        30.32S WCI  23
LAMONI         PTCLDY    30  26  85 NW10      30.25R WCI  21
RED OAK *      CLEAR     28  27  93 N5        30.31R WCI  23
SHENANDOAH *   CLEAR     30  28  93 N7        30.32R WCI  23
$$

IAZ047>049-059>061-072>074-084-191000-
   CENTRAL IOWA

CITY           SKY/WX    TMP DP  RH WIND       PRES   REMARKS
AMES           CLOUDY    34  29  82 N13       30.27R WCI  25
ANKENY *       CLOUDY    34  30  86 NW9       30.28R WCI  26
BOONE *        PTCLDY    32  28  86 NW12      30.26R WCI  23
CHARITON *     CLOUDY    32  30  93 NW12      30.25R WCI  23
DES MOINES     CLOUDY    32  29  88 NW6       30.27R WCI  26
GRINNELL*      PTCLDY    31  30  95 NW8       30.25R WCI  24
KNOXVILLE *    CLOUDY    34  30  86 NW12      30.24R WCI  25
MARSHALLTOWN   CLOUDY    31  29  92 NW13      30.24R WCI  21
NEWTON *       CLOUDY    32  30  93 N16       30.25R WCI  21
PELLA *        CLOUDY    33  31  92 NW10      30.26R WCI  25
PERRY *        FAIR      31  30  95 NW7       30.27S WCI  24
$$

IAZ004>006-015-016-023>025-035-036-191000-
   NORTH CENTRAL IOWA

CITY           SKY/WX    TMP DP  RH WIND       PRES   REMARKS
ALGONA *       PTCLDY    27  23  86 N9        30.29R WCI  17
CLARION *      PTCLDY    27  23  86 N8        30.27R WCI  18
ESTHERVILLE    PTCLDY    23  17  78 N10       30.30R WCI  12
FORT DODGE *   CLEAR     30  26  85 N5        30.29R WCI  25
MASON CITY     CLOUDY    23  20  88 N10       30.28R WCI  12
FOREST CITY *  FAIR      27  25  93 N5        30.28R WCI  21
WEBSTER CITY * PTCLDY    30  27  86 N10       30.25R WCI  21
IOWA FALLS *   FAIR      31  27  86 N12       30.27R WCI  21
$$

IAZ007>011-017>019-026>030-037>042-050>054-066-191000-
   NORTHEAST IOWA

CITY           SKY/WX    TMP DP  RH WIND       PRES   REMARKS
CEDAR RAPIDS   FAIR      31  29  92 N7        30.20R WCI  24
CHARLES CITY * FAIR      25  25 100 N8        30.27R WCI  16
CLINTON *      CLOUDY    33  31  92 N12       30.18R WCI  24
DECORAH *      FAIR      27  25  93 NW6       30.22R WCI  20
DUBUQUE        MOCLDY    31  27  85 N6        30.18R WCI  25
MONTICELLO *   CLOUDY    32  30  93 NW10      30.20R WCI  24
OELWEIN *        N/A     25  25 100 N8        30.24R WCI  16
WATERLOO       FAIR      26  24  92 N14       30.25R WCI  14
$$

IAZ064-065-067-068-078-191000-
   EAST CENTRAL IOWA

CITY           SKY/WX    TMP DP  RH WIND       PRES   REMARKS
DAVENPORT      CLOUDY    32  30  92 N13       30.20R WCI  22
IOWA CITY      MOCLDY    33  30  88 NW8       30.22R WCI  26
MT. PLEASANT * CLOUDY    32  30  93 NW8       30.22R WCI  25
MUSCATINE *    CLOUDY    34  30  86 NW9G17    30.21R WCI  26
QUAD CITIES    CLOUDY    34  31  88 NW9       30.18R WCI  27
$$

IAZ062-063-075>077-085>089-095>099-191000-
   SOUTHEAST IOWA

CITY           SKY/WX    TMP DP  RH WIND       PRES   REMARKS
BURLINGTON     CLOUDY    33  28  81 NW9       30.19R WCI  25
FAIRFIELD *    CLOUDY    32  30  93 NW13      30.22R WCI  22
FORT MADISON * CLOUDY    34  30  86 NW9       30.21R WCI  26
KEOKUK *       CLOUDY    34  28  80 NW13      30.20R WCI  25
OSKALOOSA *    CLOUDY    32  30  93 NW12      30.25R WCI  23
CENTERVILLE *    N/A     32  32 100 NW9       30.25R WCI  24
OTTUMWA        CLOUDY    33  29  85 NW13      30.23R WCI  24
WASHINGTON *   CLOUDY    34  34 100 NW9       30.22R WCI  26
$$

ABBREVIATIONS USED IN REMARKS
   TC - TEMPERATURES IN CELSIUS
  WCI - WIND CHILL INDEX
   HX - HEAT INDEX
  VSB - VISIBILITY
$$



 

View Past Reports for Des Moines, IA.

Products Courtesy of NOAA-NWS
NWS Information Parsing Script by Ken True at Saratoga Weather - Script by SE Lincoln Weather.